TimeHST,TemperatureF,Dew PointF,Humidity,Sea Level PressureIn,VisibilityMPH,Wind Direction,Wind SpeedMPH,Gust SpeedMPH,PrecipitationIn,Events,Conditions,WindDirDegrees,DateUTC
12:25 AM,73.4,64.4,73,30.15,10.0,ENE,10.4,21.9,0.00,,Overcast,70,2012-12-14 10:25:00
12:32 AM,73.4,64.4,73,30.15,10.0,Variable,5.8,21.9,0.00,,Overcast,0,2012-12-14 10:32:00
12:53 AM,72.0,64.9,78,30.16,10.0,Variable,5.8,17.3,0.00,,Mostly Cloudy,0,2012-12-14 10:53:00
1:53 AM,73.0,64.0,73,30.14,10.0,Variable,6.9,-,0.00,,Mostly Cloudy,0,2012-12-14 11:53:00
2:53 AM,71.1,64.0,78,30.14,10.0,ENE,5.8,-,0.00,,Overcast,60,2012-12-14 12:53:00
3:53 AM,73.9,62.1,66,30.13,10.0,Variable,6.9,-,N/A,,Overcast,0,2012-12-14 13:53:00
4:53 AM,73.9,61.0,64,30.12,10.0,East,9.2,18.4,N/A,,Partly Cloudy,80,2012-12-14 14:53:00
5:53 AM,73.9,61.0,64,30.12,10.0,East,11.5,24.2,N/A,,Partly Cloudy,80,2012-12-14 15:53:00
6:53 AM,73.9,61.0,64,30.13,10.0,ENE,8.1,17.3,N/A,,Partly Cloudy,70,2012-12-14 16:53:00
7:53 AM,75.0,61.0,62,30.15,10.0,ENE,11.5,19.6,N/A,,Clear,70,2012-12-14 17:53:00
8:53 AM,77.0,62.1,60,30.17,10.0,East,10.4,21.9,N/A,,Scattered Clouds,80,2012-12-14 18:53:00
9:53 AM,79.0,61.0,54,30.18,10.0,East,13.8,27.6,N/A,,Partly Cloudy,80,2012-12-14 19:53:00
10:53 AM,79.0,62.1,56,30.18,10.0,East,15.0,25.3,N/A,,Scattered Clouds,80,2012-12-14 20:53:00
11:53 AM,81.0,60.1,49,30.17,10.0,ENE,9.2,25.3,N/A,,Mostly Cloudy,70,2012-12-14 21:53:00
12:53 PM,81.0,61.0,50,30.14,10.0,East,9.2,17.3,N/A,,Scattered Clouds,90,2012-12-14 22:53:00
1:53 PM,80.1,63.0,56,30.12,10.0,East,13.8,23.0,N/A,,Overcast,80,2012-12-14 23:53:00
2:53 PM,80.1,61.0,52,30.09,10.0,ENE,11.5,23.0,N/A,,Scattered Clouds,70,2012-12-15 00:53:00
3:53 PM,79.0,61.0,54,30.09,10.0,ENE,15.0,24.2,N/A,,Scattered Clouds,70,2012-12-15 01:53:00
4:53 PM,78.1,61.0,56,30.10,10.0,ENE,9.2,23.0,N/A,,Partly Cloudy,70,2012-12-15 02:53:00
5:53 PM,75.0,62.1,64,30.12,10.0,East,9.2,-,N/A,,Clear,80,2012-12-15 03:53:00
6:53 PM,75.0,61.0,62,30.13,10.0,ENE,8.1,17.3,N/A,,Clear,70,2012-12-15 04:53:00
7:53 PM,73.9,62.1,66,30.14,10.0,East,4.6,-,N/A,,Clear,80,2012-12-15 05:53:00
8:53 PM,73.9,63.0,68,30.16,10.0,East,8.1,17.3,0.00,,Scattered Clouds,80,2012-12-15 06:53:00
9:53 PM,73.0,62.1,68,30.16,10.0,Variable,4.6,-,N/A,,Scattered Clouds,0,2012-12-15 07:53:00
10:53 PM,73.9,63.0,68,30.16,10.0,ENE,9.2,-,N/A,,Partly Cloudy,60,2012-12-15 08:53:00
11:53 PM,73.0,63.0,71,30.15,10.0,ENE,5.8,-,N/A,,Clear,70,2012-12-15 09:53:00